sat.trackr.live / text

‹ back to catalog

STARLINK-33634

NORAD 63377 · 2025-063Q

PAYLOAD ACTIVE UNKNOWN

§ Identity

Operator
Country
US
Launch date
2025-03-26
Launch site
AFWTR
Launch vehicle
Mass (kg)
RCS (m²)

Purposes: comms

External: N2YO · Heavens-Above · Gunter

§ Orbital elements

Epoch: 2026-05-25T04:25:22.399392Z

Period
94.10 min
Inclination
53.1584°
Eccentricity
0.0001085
Mean motion
15.30209394 rev/d
Perigee alt
474.4 km
Apogee alt
475.9 km
Semi-major
6,853.3 km
B*
5.1797e-4
RAAN
56.9705°
Arg perigee
87.1331°
Mean anomaly
272.9794°
Rev number
6,647

§ Raw data

STARLINK-336341 63377U 25063Q   26145.18428703  .00015017  00000+0  51797-3 0  99982 63377  53.1584  56.9705 0001085  87.1331 272.9794 15.30209394 66472

JSON: /api/v1/satellites/63377 · /tle

For live sub-satellite position, see the globe view (requires WebGL).

§ Visibility from observer

Set your observer location to see the next 7 days of passes ≥ 10°. The values pass through the URL so the page stays shareable.

No JS? Fill the form by hand. The geolocation button needs JavaScript.